Location: Unspecified
(49.2170°N, 0.0000°E)
Time: 13:17:34
(UTC+00:00)

S-56A Canister/Altair - All Passes

Search period start: 25 January 2021 00:00
Search period end: 04 February 2021 00:00
Orbit: 633 x 2499 km, 38.9° (Epoch: 24 January)

Date Brightness Start Highest point End Pass type
(mag) Time Alt. Az. Time Alt. Az. Time Alt. Az.
25 Jan - 02:33:04 10° SSW 02:36:05 18° SSE 02:39:08 10° ESE night (unlit)
25 Jan - 04:35:10 10° SW 04:38:49 24° S 04:42:59 10° SE visible
25 Jan - 06:38:34 10° WSW 06:41:45 17° SSW 06:45:29 10° SSE visible
26 Jan - 02:00:45 10° SSW 02:03:38 16° SSE 02:06:27 10° ESE night (unlit)
26 Jan - 04:02:47 10° SW 04:06:21 24° S 04:10:14 10° SE visible
26 Jan - 06:06:08 10° WSW 06:09:12 17° SSW 06:12:47 10° SSE visible
27 Jan - 01:28:22 10° SSW 01:31:10 15° SSE 01:33:48 10° SE night (unlit)
27 Jan - 03:30:21 10° SW 03:33:53 23° S 03:37:35 10° SE visible
27 Jan - 05:33:39 10° WSW 05:36:42 17° SSW 05:40:08 10° SSE visible
28 Jan - 00:55:58 10° SSW 00:58:41 15° SSE 01:01:12 10° SE night (unlit)
28 Jan - 02:57:52 10° SW 03:01:26 23° S 03:05:01 10° SE visible
28 Jan - 05:01:11 10° WSW 05:04:12 18° SSW 05:07:32 10° SSE visible
29 Jan - 00:23:30 10° SSW 00:26:11 14° SSE 00:28:38 10° SE night (unlit)
29 Jan - 02:25:19 10° SW 02:28:59 23° S 02:32:29 10° SE night (unlit)
29 Jan - 04:28:39 10° WSW 04:31:44 18° SSW 04:35:01 10° SSE visible
29 Jan - 23:50:59 10° S 23:53:40 13° SSE 23:56:04 10° SE night (unlit)
30 Jan - 01:52:41 10° SW 01:56:31 23° S 02:00:01 10° ESE night (unlit)
30 Jan - 03:56:05 10° WSW 03:59:16 19° SSW 04:02:32 10° SSE visible
30 Jan - 23:18:27 10° S 23:21:07 13° SSE 23:23:30 10° SE night (unlit)
31 Jan - 01:20:01 10° SW 01:24:03 23° S 01:27:36 10° ESE night (unlit)
31 Jan - 03:23:28 10° WSW 03:26:48 20° SSW 03:30:07 10° SE visible
31 Jan - 22:45:52 10° S 22:48:33 13° SSE 22:50:56 10° SE night (unlit)
01 Feb - 00:47:15 10° SW 00:51:34 23° S 00:55:13 10° ESE night (unlit)
01 Feb - 02:50:47 10° WSW 02:54:21 21° S 02:57:45 10° SE night (unlit)
01 Feb - 22:13:17 10° S 22:15:57 12° SSE 22:18:20 10° SE night (unlit)
02 Feb - 00:14:24 10° SW 00:19:03 23° S 00:22:52 10° ESE night (unlit)
02 Feb - 02:18:02 10° WSW 02:21:54 23° S 02:25:25 10° SE night (unlit)
02 Feb - 04:23:37 10° SW 04:24:29 10° SSW 04:25:21 10° SSW visible
02 Feb - 21:40:42 10° S 21:43:20 12° SSE 21:45:41 10° SE night (unlit)
02 Feb - 23:41:31 10° SW 23:46:31 23° S 23:50:31 10° ESE night (unlit)
03 Feb - 01:45:12 10° WSW 01:49:27 24° S 01:53:07 10° SE night (unlit)
03 Feb - 03:50:17 10° SW 03:52:01 12° SSW 03:53:46 10° S night (unlit)
03 Feb - 21:08:09 10° S 21:10:40 12° SSE 21:12:57 10° SE visible
03 Feb - 23:08:33 10° SW 23:13:57 24° SSE 23:18:11 10° ESE night (unlit)
